Lapse_Rate
4.8 4.6 5.1 6.0 5.9 6.4 6.9 7.0 7.7 7.8 7.9 7.9 7.9 7.8 7.9 8.3 8.3 8.4 8.5 8.2 7.6 7.3 7.2 6.8 6.4 6.4 6.4 6.3 6.0 6.1 6.2 6.2 6.1 6.1 6.3 6.5 6.5 6.3 6.3 6.1 5.9 5.8 5.7 5.8
4.6 4.7 5.8 6.3 6.3 6.5 6.6 6.7 7.6 8.0 7.9 8.0 7.9 7.6 7.5 8.0 8.5 8.7 8.7 8.5 7.8 7.4 7.4 7.3 6.9 6.6 6.6 6.8 6.7 6.5 6.4 6.2 6.2 6.3 6.3 6.5 6.3 6.2 6.1 6.1 6.1 5.9 6.0 5.6
5.0 5.3 5.6 5.7 5.9 6.0 6.3 6.5 7.5 7.7 8.0 8.0 8.0 7.6 7.8 8.3 7.9 8.2 8.5 8.5 7.8 7.6 7.3 7.2 7.2 7.2 7.2 7.1 7.0 6.9 6.8 6.6 6.5 6.3 6.4 6.4 6.5 6.5 6.6 6.6 6.4 6.1 5.9 5.7
4.7 5.3 5.5 5.4 5.3 6.0 6.3 6.9 7.0 7.4 7.5 7.8 8.1 6.7 7.7 8.2 8.2 8.4 8.5 8.5 8.2 7.5 7.3 7.1 7.1 7.0 7.1 7.0 6.9 6.8 6.7 6.6 6.3 6.2 6.4 6.4 6.3 6.4 6.3 6.2 6.1 5.9 5.9 6.0
5.0 5.6 5.3 5.1 5.9 5.6 6.3 6.8 7.1 7.5 7.5 7.6 7.7 6.9 6.9 7.7 7.9 8.1 8.8 8.2 8.5 8.2 7.5 7.3 7.4 7.3 6.9 7.1 7.2 7.1 6.9 6.7 6.5 6.5 6.3 6.3 6.4 6.3 6.2 6.3 6.2 6.1 6.3 6.4
5.2 5.5 5.2 5.8 5.9 6.0 6.3 6.6 7.1 7.3 7.3 6.2 6.6 6.6 6.6 7.3 7.9 8.5 8.8 8.4 8.6 8.2 8.3 8.0 7.6 7.1 7.0 6.9 7.0 7.0 6.9 6.8 6.6 6.5 6.4 6.5 6.4 6.3 6.3 6.3 6.3 6.2 6.4 6.5
4.8 5.1 5.3 5.6 5.3 5.3 5.5 5.9 6.3 6.2 5.8 4.5 7.1 6.7 6.0 7.3 8.0 8.5 8.6 8.7 8.8 8.6 8.3 8.4 8.3 8.2 8.0 7.4 7.0 7.1 7.0 6.9 6.8 6.7 6.5 6.5 6.5 6.4 6.3 6.3 6.4 6.4 6.4 6.5
5.0 4.9 5.2 5.3 5.3 5.6 5.4 5.4 5.3 3.9 3.6 4.8 6.7 5.9 6.0 7.2 7.9 8.2 8.6 8.8 8.9 8.8 8.5 8.3 8.5 8.5 8.4 8.0 7.4 7.1 7.1 7.3 7.3 7.2 7.0 6.8 6.7 6.7 6.7 6.6 6.7 6.6 6.7 6.7
4.9 4.9 5.9 5.5 5.8 5.9 5.5 5.4 5.7 6.0 5.3 5.2 6.3 6.2 6.9 7.2 7.8 8.2 8.4 8.9 8.9 9.0 8.7 8.7 8.6 8.6 8.6 8.3 7.8 7.6 7.4 7.2 7.4 7.6 7.3 7.1 6.7 6.9 7.1 7.0 7.0 7.0 6.9 7.0
5.5 5.2 5.9 6.5 6.1 6.0 5.8 6.2 5.7 5.8 4.5 4.1 4.7 5.6 6.5 7.2 7.8 8.1 8.2 8.3 8.8 9.0 8.9 8.8 8.7 8.6 8.6 8.5 8.4 7.8 7.5 7.6 7.5 7.3 6.9 6.8 6.6 6.6 7.0 7.0 7.2 7.5 7.4 7.3
5.4 5.2 5.7 6.0 5.4 5.7 5.7 5.6 5.6 5.7 5.8 4.0 3.6 5.3 6.2 6.8 7.7 8.2 8.5 8.5 8.7 8.9 8.8 9.0 9.0 8.9 8.9 9.0 8.5 8.4 8.0 7.8 7.8 7.8 7.5 7.1 6.7 6.4 6.8 7.2 7.2 7.7 7.6 7.5
5.1 5.0 5.2 5.6 6.0 6.3 6.5 6.1 6.2 6.4 5.3 5.2 5.4 5.2 6.6 6.9 7.3 8.0 8.6 8.8 8.7 8.6 8.8 9.0 9.3 9.3 9.0 9.0 8.9 8.8 8.6 8.1 8.2 8.1 7.8 7.6 7.1 6.7 6.8 7.3 7.3 7.5 7.7 7.5
3.9 4.2 4.8 5.4 6.1 5.7 5.5 5.8 5.9 6.0 5.9 5.4 5.1 5.0 7.1 6.9 6.9 7.1 7.7 8.5 8.7 8.7 8.8 8.8 9.0 9.2 9.2 8.9 9.0 9.0 9.0 8.6 8.6 8.4 8.1 8.0 7.7 7.3 7.1 7.3 7.2 7.6 7.7 7.6
3.5 3.6 3.7 4.1 5.1 5.0 5.5 5.5 5.7 5.8 5.4 5.2 5.0 5.3 5.9 6.5 7.0 7.5 7.6 8.1 8.2 8.4 8.7 8.9 8.8 9.1 9.2 9.3 9.0 8.9 9.1 9.0 9.0 8.9 8.5 8.2 8.1 7.9 7.4 7.2 6.9 7.4 7.7 7.5
3.6 3.7 3.5 3.4 4.2 4.0 4.2 4.9 5.4 5.1 5.4 5.3 5.1 5.2 5.7 6.3 6.7 7.2 7.6 7.9 7.9 8.0 8.4 8.9 9.0 9.0 9.1 8.8 9.0 8.7 8.9 9.0 9.1 9.0 8.7 8.5 8.5 7.9 7.8 7.8 7.4 7.4 7.2 7.4
3.8 3.6 3.5 3.4 3.7 4.5 4.2 4.6 4.9 5.1 5.0 4.5 4.8 5.3 5.9 6.4 6.8 6.9 7.3 7.2 7.3 7.5 8.0 8.4 9.1 9.2 9.0 9.1 9.0 9.0 8.7 8.9 9.3 9.1 8.9 8.8 8.8 8.2 8.0 8.2 8.1 7.8 7.7 7.4
3.9 3.7 3.8 3.5 3.7 4.0 4.1 5.0 5.2 5.3 5.2 5.2 5.2 5.3 5.4 6.2 6.6 6.9 7.3 7.5 7.4 7.4 7.4 7.8 8.4 9.1 9.2 9.0 9.0 8.9 8.8 9.2 9.3 9.4 9.2 8.9 8.8 8.6 8.3 8.4 8.3 8.3 8.1 7.9
4.1 3.9 4.0 3.6 3.9 3.5 4.2 5.5 6.0 6.2 6.1 5.9 5.7 5.7 5.8 6.3 6.8 7.1 7.2 7.8 7.9 7.6 7.7 8.2 8.1 8.5 9.0 8.9 9.0 8.9 8.7 8.6 8.9 9.0 9.4 9.0 8.8 8.7 8.6 8.6 8.6 8.4 8.5 8.4
4.8 4.5 4.1 4.2 4.3 3.7 4.5 5.3 5.9 5.8 5.9 6.4 6.5 6.4 6.2 6.5 6.8 7.0 7.4 7.8 7.9 7.9 7.8 8.0 8.1 8.7 8.9 8.9 8.9 8.7 8.7 8.6 8.6 8.6 9.3 9.2 9.0 8.7 8.5 8.7 8.8 8.7 8.6 8.7
5.6 5.3 4.3 4.5 4.0 3.2 4.9 6.0 5.6 5.4 4.9 6.4 6.4 7.0 6.8 7.2 6.6 6.8 7.8 8.2 8.1 8.0 8.0 8.0 8.1 8.3 9.0 8.9 8.8 8.8 8.9 9.2 8.9 8.9 9.3 9.4 9.3 9.0 8.7 8.8 8.8 8.8 8.7 8.7
6.0 4.5 4.2 4.5 4.5 3.6 4.3 5.7 6.3 5.6 5.3 6.4 7.0 7.3 7.6 7.2 7.5 8.1 7.9 8.0 8.3 8.3 8.1 8.0 8.2 8.2 8.7 8.9 8.7 8.9 9.1 9.2 9.5 9.4 9.4 9.3 9.4 9.1 8.9 8.6 8.9 8.9 8.7 8.7
6.0 5.6 4.1 3.5 4.5 3.7 4.3 6.2 5.8 5.8 6.4 6.6 7.5 7.9 8.1 8.1 8.0 8.2 8.4 8.3 8.6 8.5 8.4 8.3 8.3 8.7 8.8 9.0 9.0 9.1 9.2 9.5 9.5 9.6 9.4 9.4 9.4 9.2 9.1 8.8 9.0 9.1 9.1 8.6
5.7 5.3 5.7 5.5 4.4 5.6 5.7 6.7 7.1 6.5 6.9 6.9 7.5 7.9 8.3 8.6 8.6 8.6 8.8 9.0 9.2 9.1 8.7 8.5 8.4 8.4 8.8 9.0 9.2 9.3 9.4 9.5 9.5 9.5 9.2 9.3 9.3 9.4 9.1 9.3 9.3 9.0 8.6 8.6
6.2 6.3 5.7 5.4 5.4 5.8 5.9 6.3 7.4 7.2 7.4 7.8 8.4 8.2 8.2 8.6 8.6 8.7 9.1 9.5 9.3 9.3 8.8 8.4 8.4 8.4 8.4 9.0 9.1 9.2 9.2 9.2 9.4 9.2 9.4 9.4 9.4 9.4 9.3 9.1 9.2 8.7 8.7 8.9
7.0 6.8 6.5 6.0 5.3 5.6 5.9 6.5 7.2 7.8 8.1 7.8 8.7 9.0 8.5 8.2 7.9 8.4 8.7 8.9 8.7 8.9 8.8 8.3 8.2 8.1 8.1 8.2 8.4 8.6 8.8 8.9 9.0 9.1 9.2 9.1 9.1 9.2 9.2 9.2 9.2 9.0 8.8 8.6
7.5 7.2 7.0 6.5 6.5 5.6 6.1 6.9 6.7 7.9 8.1 8.0 8.1 8.3 8.1 8.0 8.1 8.2 8.3 8.3 8.6 8.7 8.8 8.4 8.2 8.2 8.3 8.4 8.6 8.8 8.8 8.9 9.0 9.1 9.0 9.1 9.0 9.0 9.2 9.2 9.2 9.2 9.0 9.0
Wind_Speed
6 4 14 11 7 5 5 5 4 3 3 6 10 3 6 16 15 17 18 17 18 20 19 16 15 14 14 13 13 14 13 11 9 5 5 4 6 4 3 7 11 12 13 13
4 20 11 9 8 9 6 5 7 4 7 2 3 9 9 15 22 22 20 18 20 18 16 18 16 16 16 16 17 16 17 14 12 9 7 4 5 3 3 5 7 10 12 13
19 7 12 13 7 11 6 12 6 4 3 1 4 6 4 12 4 13 16 18 17 18 19 18 18 20 18 18 18 17 18 17 14 13 6 2 3 2 2 2 2 5 13 13
7 8 19 8 13 10 9 8 5 7 4 4 4 5 5 8 20 16 15 18 18 19 15 15 18 17 19 20 18 18 16 15 14 14 11 13 10 9 8 5 5 6 13 10
11 12 14 16 11 8 8 9 9 6 5 3 4 1 6 7 11 17 18 19 20 21 19 20 20 23 20 18 18 18 18 18 17 17 17 12 12 8 4 3 7 6 5 9
8 5 13 11 7 10 7 4 5 5 4 6 9 8 5 7 14 17 18 18 20 20 21 19 20 16 15 16 16 16 17 17 17 16 18 16 16 9 7 4 7 5 4 4
6 13 3 6 7 5 6 8 2 2 4 9 8 7 14 9 14 20 24 22 22 22 21 21 19 17 18 19 19 17 19 19 18 18 18 17 17 13 13 10 8 7 5 3
10 7 17 6 10 10 8 10 6 8 5 5 7 9 6 13 11 17 19 25 23 21 22 23 24 21 20 22 20 20 20 20 19 19 19 17 16 11 11 10 8 7 7 7
8 10 4 10 5 17 6 10 9 4 1 2 5 7 6 6 9 12 18 17 16 20 22 24 24 22 22 20 22 22 21 20 19 20 17 17 15 15 13 12 11 8 8 7
4 1 6 18 6 9 11 9 4 1 6 6 4 4 6 8 14 14 10 15 18 18 20 22 21 22 21 22 22 21 21 22 20 21 18 17 18 17 14 11 12 12 9 9
6 3 3 9 11 19 4 6 3 6 6 6 0 7 8 10 13 15 17 17 18 16 19 20 21 22 23 20 18 22 21 20 20 18 18 18 16 16 14 12 13 12 10 11
2 2 7 6 2 7 22 12 8 6 10 5 4 9 3 10 9 12 12 11 11 14 17 19 21 20 19 20 19 20 20 20 21 20 19 19 17 16 16 15 14 12 12 11
6 2 2 5 6 2 5 10 8 14 2 16 8 8 14 3 8 9 10 9 8 10 10 10 10 15 18 20 19 19 20 22 20 18 19 18 18 18 18 16 15 13 13 12
2 2 3 4 1 4 6 5 9 15 13 15 18 11 4 6 8 8 10 10 10 9 11 9 10 16 17 18 21 20 20 20 19 19 19 20 20 20 18 17 16 15 15 13
4 0 2 2 11 6 11 14 12 12 21 15 17 21 11 8 10 13 15 8 7 10 8 9 10 13 15 16 18 17 18 18 19 19 19 21 19 19 17 17 16 15 16 16
4 1 1 3 9 12 11 13 15 14 11 8 20 14 8 14 11 9 11 9 10 11 11 9 11 11 13 17 17 18 18 20 20 20 22 18 17 18 18 16 16 15 16 14
3 3 2 4 5 10 13 9 14 8 8 11 16 10 8 9 11 14 16 13 13 13 12 11 12 15 17 18 19 18 19 17 20 21 19 19 18 19 18 16 16 17 16 15
2 2 3 4 4 7 4 8 8 17 19 15 9 7 12 15 17 17 17 18 15 12 11 11 11 11 14 17 16 17 15 19 20 21 19 17 19 20 17 16 18 18 16 18
15 4 3 4 5 11 18 4 5 2 8 8 15 10 9 14 9 11 8 10 14 12 10 10 10 11 9 10 11 12 12 14 16 17 17 19 20 19 19 20 20 17 16 16
12 15 4 1 6 7 1 2 8 3 6 10 7 16 17 7 7 9 10 8 12 11 8 8 8 5 8 8 11 12 14 16 18 18 21 20 20 20 20 21 19 17 14 15
4 6 15 12 6 7 4 9 5 7 7 16 10 14 13 10 14 14 4 6 5 4 2 3 2 3 4 2 8 14 13 17 21 17 16 16 17 19 20 16 14 15 14 12
8 8 5 7 6 18 2 5 3 4 8 12 17 17 16 11 8 5 6 5 5 7 7 7 9 7 5 5 6 7 11 9 4 7 10 13 16 15 14 16 13 11 11 12
8 9 4 10 7 6 4 7 7 7 11 10 16 16 14 10 6 6 7 7 6 7 6 6 9 9 9 7 5 3 4 2 5 7 8 11 11 12 11 13 13 12 13 12
6 5 6 9 9 9 7 4 4 7 6 11 11 6 4 9 7 9 10 9 7 6 7 7 11 11 10 9 10 7 4 2 2 6 6 5 7 8 10 9 11 11 14 16
7 9 7 8 17 3 5 2 3 7 6 7 3 13 11 10 10 10 9 8 6 7 6 6 9 9 7 6 7 7 8 5 5 1 4 6 6 9 9 3 5 10 10 9
6 10 6 9 10 5 2 3 4 4 3 7 5 14 10 8 11 11 10 7 8 8 7 9 9 9 6 5 5 4 4 5 5 4 2 4 5 5 6 6 5 14 12 16
Wind_Direction
180 175 214 196 181 188 195 211 196 270 283 142 220 256 201 174 186 183 190 194 197 204 204 198 196 191 189 185 184 187 185 190 177 176 183 203 216 207 221 217 208 201 199 195
119 222 205 178 194 194 207 245 252 288 273 120 216 242 195 185 199 190 185 197 204 207 199 195 195 194 192 189 192 188 193 188 190 191 200 195 186 196 191 210 212 202 199 195
201 222 173 196 178 197 209 217 197 208 336 300 91 307 179 209 201 206 203 201 205 209 200 198 195 196 194 196 195 195 195 192 191 193 175 103 96 81 153 203 209 207 206 199
209 224 192 179 210 179 214 187 152 167 124 216 148 269 258 201 208 204 200 200 205 213 211 202 202 205 205 201 195 197 195 194 194 187 190 198 203 203 211 193 195 203 206 202
207 180 182 206 206 163 220 154 182 168 190 173 219 276 254 155 208 216 214 207 205 208 208 207 200 207 208 202 199 196 192 194 193 190 196 196 207 210 189 174 184 195 197 197
192 193 187 197 170 176 160 98 61 52 111 242 212 177 238 186 209 216 227 218 211 211 214 211 209 204 208 205 202 198 195 197 193 193 199 198 205 193 182 180 194 187 192 192
188 216 190 153 167 171 141 103 289 298 197 240 174 195 230 209 204 204 214 219 215 212 211 213 209 196 200 196 197 194 193 202 196 194 197 200 203 197 198 193 196 183 182 184
179 219 205 186 191 185 184 160 162 203 219 228 118 234 241 202 208 220 222 218 212 213 212 212 210 203 199 198 195 194 194 201 198 196 200 201 201 202 207 198 195 202 196 199
173 236 227 182 160 172 193 194 176 80 272 25 219 309 307 188 212 212 225 226 218 213 214 215 212 207 206 200 198 194 196 200 197 199 200 201 201 204 203 198 195 200 193 191
222 210 206 203 126 192 162 160 141 33 196 244 275 248 223 202 202 201 216 218 225 217 214 216 212 211 209 204 200 197 198 196 196 197 197 198 199 201 201 195 200 199 190 188
9 124 310 127 200 195 154 179 111 148 167 203 24 252 210 210 219 214 210 209 218 214 217 215 211 209 207 205 196 198 198 196 198 196 198 199 201 201 199 196 201 201 189 187
358 95 218 200 201 226 214 199 157 162 222 248 181 245 210 231 203 200 218 217 218 216 214 210 209 204 200 201 197 195 196 197 199 193 195 199 197 196 197 198 198 194 193 190
332 358 80 48 303 165 192 214 184 216 114 219 200 243 245 206 173 229 241 251 241 235 232 215 200 199 197 196 198 195 197 201 197 192 195 197 197 196 200 199 195 192 191 190
52 90 103 217 300 355 306 275 204 207 225 232 231 260 275 289 248 246 243 236 226 223 238 208 192 199 198 195 195 194 198 199 195 195 196 198 198 198 200 198 195 190 193 187
74 86 348 246 285 252 247 255 264 233 225 221 240 240 238 240 234 231 234 234 243 246 231 217 197 196 194 192 194 195 196 192 191 195 199 204 198 200 199 198 197 192 192 195
353 265 121 278 267 296 281 264 256 249 240 258 263 254 212 214 216 232 246 237 233 242 241 222 209 202 191 193 192 192 190 191 187 194 204 200 197 198 199 197 196 194 197 197
312 161 71 262 305 320 298 254 234 231 201 211 242 230 212 238 219 220 235 239 235 237 234 231 211 201 199 196 191 192 194 185 191 198 196 197 196 200 199 193 192 196 196 193
233 203 153 239 313 245 246 311 283 240 233 215 223 235 205 220 235 224 220 222 229 234 237 227 232 216 211 203 195 198 186 191 193 195 198 193 193 200 196 193 199 199 195 194
206 178 249 200 214 297 304 344 22 59 287 261 220 215 214 234 282 270 204 209 226 230 225 225 224 220 194 183 184 175 178 189 195 200 200 193 194 198 195 198 202 201 197 200
194 207 223 160 204 228 259 153 256 194 254 13 325 222 223 161 219 250 245 200 225 229 229 230 219 190 179 199 161 167 182 188 197 199 200 197 196 197 199 201 201 199 199 203
150 192 212 228 249 279 241 306 288 196 288 321 318 289 283 193 216 229 144 192 211 202 187 8 62 54 8 125 170 187 190 198 205 201 199 198 197 199 204 202 200 197 200 194
180 174 193 208 235 237 30 311 202 333 314 304 300 279 270 252 176 182 121 93 86 87 62 69 83 63 38 90 148 173 200 216 175 187 203 209 205 201 198 197 189 192 184 196
232 221 207 199 214 234 166 213 263 280 285 301 291 284 259 216 188 137 107 80 61 68 67 66 78 70 51 55 77 135 25 72 165 186 203 208 204 204 207 197 189 169 177 194
252 252 241 274 261 224 217 257 259 289 283 302 283 301 337 109 72 95 90 84 81 71 82 88 85 69 58 49 55 56 34 67 172 216 204 188 197 202 200 200 195 212 216 195
251 325 270 286 257 251 192 251 291 294 9 310 316 58 30 82 82 89 82 80 82 89 90 96 95 87 74 58 54 38 32 42 67 127 198 189 187 185 193 134 213 211 211 207
198 237 212 233 243 207 231 302 301 291 33 315 9 66 54 53 81 86 76 70 71 58 55 65 78 91 102 101 94 92 61 62 68 73 117 177 155 132 133 132 79 30 133 120